METEOR 3-4

导读

METEOR 3-4是苏联解体后由独立国家联合体(CIS)于1991年4月24日发射的极轨气象卫星,属于第三代“流星”(Meteor)系列。卫星运行在高度约1200公里的近圆轨道,倾角82.54°,主要承担全球气象观测任务,为气象预报和气候研究提供大气、云层等遥感数据,是流星气象卫星体系中承前启后的重要一员,延续了苏联极轨气象卫星的观测能力。

基本信息
目录编号:
21232
目录名称:
METEOR 3-4
国际标识:
1991-030A
轨道中心:
EARTH
卫星名称:
METEOR 3-4
卫星全名:
--
卫星状态:
在轨 (已飞行12925 天)
发射日期:
1991-04-24 UTC
国别 :
俄罗斯(独联体) (CIS)
星等 :
--
该卫星已列入 空间交会检测服务 Space Conjunction Data Service (SCDS) ,当前飞行风险评估等级: 无高风险
轨道信息
数据来源 国际轨道数据 AOE轨道数据
星历时间 2026-09-12T04:43:33+0800
6小时前
查看轨道信息
2026-09-10T22:00:00+0800
1天前
查看轨道信息
半长轴 7575.475km 7575.484km
偏心率 0.0012137 0.0012361
轨道倾角 82.542° 82.544°
近地点辐角 305.854° 310.179°
升交点赤经 123.036° 123.940°
平近点角 66.448° 116.811°
近地点 1188.143km 1187.982km
远地点 1206.533km 1206.712km
周期 109.364分钟 109.364分钟
每日圈数 13.167035 13.167011
详细信息
使用方式:
暂无
2D轨道图
3D轨道图
轨道高度分析图
轨道倾角分析图
轨道综合分析图
查看轨道综合分析图
与全量物体交会距离演化趋势
与全量物体交会风险概率演化趋势